Карточка аэропорта URMN

Внимание!
Информация на этой странице в стадии наполнения.
Если вы не увидели какой-то информации, или заметили неточность - пожалуйста сообщите нам!
Спасибо!
Команда RU-STAFF
Название аэропортаНальчик
Название аэропорта (англ.)Nalchik
Превышение445 ft. (135.6 m.)
Координаты43°30.798', 43°38.298'
Высота перехода5000 ft
Эшелон переходаFL70 (QNH >= 977); FL80 (QNH < 977)
Коды ответчика2400-2407
Зона ОрВДРостов-на-Дону РПИ (URRV)
Данные METARURMN 131700Z 22002MPS 9999 SCT/// 27/12 Q1010 R24/010070 NOSIG RMK QFE721
Проноз погоды (TAF)URMN 131700Z 1318/1403 25003G08MPS 9999 BKN020
NOTAMshow/hide NOTAM
AWOS   TABLE

Информация о ВПП

ВПП Длина ВПП (м.) Покрытие Курс ВПП Частота ILS
242200Асфальтобетон237110.5
062200Асфальтобетон57 

Диспетчерские позиции

Позывной Наименование органа УВД Частота
URMN_TWRНальчик-Старт/Посадка118.3
URMN_APPНальчик - Подход126.9



Спутниковое изображение